Regional Weather Roundup
Issued by NWS Boston, MA

Home | Current Version | Previous Version | Text Only | Print | Product List | Glossary On
Versions: 1 2 3 4 5 6 7 8 9 10 11 12 13 14 15 16 17 18 19 20 21 22 23 24 25 26 27 28 29 30 31 32 33 34 35 36 37 38 39 40 41 42 43 44 45 46 47 48 49 50
803
ASUS41 KBOX 220210
RWRBOX

REGIONAL WEATHER ROUNDUP
NATIONAL WEATHER SERVICE TAUNTON MA
900 PM EST TUE FEB 21 2017

NOTE:  "FAIR" INDICATES FEW OR NO CLOUDS BELOW 12,000 FEET WITH NO
SIGNIFICANT WEATHER AND/OR OBSTRUCTIONS TO VISIBILITY.

MAZALL-220300-
EASTERN MASSACHUSETTS

CITY           SKY/WX    TMP DP  RH WIND       PRES   REMARKS
BOSTON         CLOUDY    38  27  64 S10       30.18F WCI  31
BEVERLY        CLOUDY    38  27  64 S6        30.16F
LAWRENCE       CLOUDY    37  27  67 SE5       30.18F
BEDFORD        CLOUDY    38  22  52 S6        30.15F
BLUE HILL      NOT AVBL
NORWOOD        CLOUDY    38  27  64 S6        30.18F
MARSHFIELD     CLOUDY    37  27  65 SW7       30.19F
PLYMOUTH       CLOUDY    36  27  69 SW7       30.20S WCI  30
TAUNTON        CLOUDY    37  27  67 S5        30.19F
NEW BEDFORD    MOCLDY    38  28  67 S6        30.19F
$$

MAZALL-220300-
CAPE COD AND THE ISLANDS

CITY           SKY/WX    TMP DP  RH WIND       PRES   REMARKS
FALMOUTH       CLOUDY    36  28  75 MISG      30.22S
HYANNIS        CLOUDY    37  30  75 S6        30.20F
CHATHAM        CLOUDY    37  31  78 SW5       30.22F
PROVINCETOWN   CLOUDY    37  30  75 S9        30.22S WCI  30
NANTUCKET      CLOUDY    37  28  70 SW7       30.22F WCI  32
MARTHAS VNYRD  CLOUDY    38  29  70 SW5       30.21F
$$

MAZALL-220300-
CENTRAL AND WESTERN MASSACHUSETTS

CITY           SKY/WX    TMP DP  RH WIND       PRES   REMARKS
WORCESTER      CLOUDY    35  22  58 SW13      30.13F WCI  26
FITCHBURG      MOCLDY    40  19  43 S5        30.15F
ORANGE         CLOUDY    36  24  62 S8        30.14S WCI  30
SPRINGFIELD    CLOUDY    38  25  61 S12       30.15S WCI  30
WESTFIELD      PTCLDY    38  26  62 S12       30.15S WCI  30
NORTH ADAMS    CLOUDY    39  19  44 SE3       30.11S
PITTSFIELD     CLOUDY    37  23  56 S9        30.09R WCI  30
$$

RIZALL-220300-
RHODE ISLAND

CITY           SKY/WX    TMP DP  RH WIND       PRES   REMARKS
PROVIDENCE     CLOUDY    37  29  72 S6        30.19F
NEWPORT        CLOUDY    38  30  73 S8        30.19F
BLOCK ISLAND   CLOUDY    39  32  76 S8        30.20F
SMITHFIELD     MOCLDY    36  28  73 CALM      30.16F
WESTERLY       CLOUDY    40  31  70 S5        30.20F
$$

CTZALL-220300-
CONNECTICUT

CITY           SKY/WX    TMP DP  RH WIND       PRES   REMARKS
BRADLEY INTL   MOCLDY    38  27  64 S9        30.17F WCI  31
HARTFORD       CLOUDY    38  29  70 S8        30.19S
BRIDGEPORT     CLEAR     39  34  81 SW3       30.20S
GROTON         CLOUDY    39  33  79 SW8       30.20F
NEW HAVEN      CLEAR     36  32  87 CALM      30.20S
CHESTER        FAIR      37  32  81 S5        30.18S
MERIDEN        MOCLDY    39  29  67 S5        30.19S
WILLIMANTIC    CLOUDY    39  30  70 S6        30.18F
OXFORD         MOCLDY    36  27  69 SW6       30.18R WCI  31
$$

MEZ002-015-021-024-NHZ003-005-008-011-012-014-VTZ005-008-220300-
NORTHERN NEW ENGLAND

CITY           SKY/WX    TMP DP  RH WIND       PRES   REMARKS
PORTLAND ME    CLOUDY    36  29  75 SW6       30.17R WCI  31
BANGOR ME      CLOUDY    30  20  66 S10       30.13F WCI  21
CONCORD NH     PTCLDY    35  25  66 SE7       30.12F WCI  29
MANCHESTER NH  CLOUDY    36  25  64 S6        30.12F WCI  31
NASHUA NH      MOCLDY    35  28  75 CALM      30.14F
PORTSMOUTH NH  CLOUDY    36  29  76 SE6       30.13F WCI  31
JAFFREY NH     CLOUDY    36  18  48 S6        30.11F WCI  31
KEENE NH       PTCLDY    35  22  58 SW5       30.13F WCI  31
BURLINGTON VT  CLOUDY    41  21  44 S16G23    30.02F
MT. WASHINGTON CLOUDY    28  23  80 W39G51      N/A  WCI  11
$$

NYZ052-076-220300-
EASTERN NEW YORK

CITY           SKY/WX    TMP DP  RH WIND       PRES   REMARKS
ALBANY         CLOUDY    42  25  50 S15G21    30.10S
NEW YORK CITY  CLOUDY    44  33  65 S9        30.19F
$$

ANZALL-220300-
MARINE OBSERVATIONS

STATION/POSITION TIME  TEMP    WIND        PRES    VSBY  WAVE
                       AIR SEA DIR/SP/G                  HT/PER
                 (UTC) (F)     (DEG/KT/KT) (MB)    (MI)  (FT/S)
BOSTON BUOY      0050   39 42  160/ 17/ 19 1021.2          3/ 6
BUZZARDS BAY     0100   38     200/ 13/ 14 1023.8F
NANTUCKET SOUND  0150   38 39  200/  6/  8 1023.1F         1/ 7
MASS BAY-STELLWA 0104   40 41  170/ 17/ 19 1020.6F         3/ 4
ISLE OF SHOALS   0100   38     170/ 22/ 23 1021.2F
S OF BLOCK IS    0155      42                N/A           2/ 7
$$

......................KEY.........................
  SKY/WX - SKY CONDITION/PRESENT WEATHER
  TMP    - TEMPERATURE IN FAHRENHEIT
  DWPT   - DEWPOINT IN FAHRENHEIT
  RH     - RELATIVE HUMIDITY IN PERCENT
  WIND   - DIRECTION AND SPEED IN MPH
  PRES   - MEAN SEA LEVEL PRESSURE IN INCHES OF HG
  WCI    - WIND CHILL INDEX
  VSB    - VISIBILITY IN MILES
  HX     - HEAT INDEX
  TC     - TEMPERATURE IN CELSIUS
  VRB    - VARIABLE WIND DIRECTION
  N/A    - NOT AVAILABLE




USA.gov is the U.S. government's official web portal to all federal, state and local government web resources and services.